| time (UTC) | temp C | wind direction | speed KPH | gust KPH | rain 1hr cm | rain 24hr cm | rain mn cm | humidity % | barometer mb |
| 20260906171537 | 15 | 254 | 0.0 | 9.7 | 0.00 | 0.25 | 0.08 | 87 | 1003.7 |
| 20260906170136 | 16 | 269 | 3.2 | 17.7 | 0.00 | 0.25 | 0.08 | 84 | 1003.7 |
| 20260906164542 | 16 | 213 | 3.2 | 12.9 | 0.00 | 0.25 | 0.08 | 83 | 1003.6 |
| 20260906163045 | 17 | 134 | 1.6 | 14.5 | 0.00 | 0.25 | 0.08 | 83 | 1003.6 |
| 20260906161533 | 17 | 70 | 3.2 | 14.5 | 0.00 | 0.25 | 0.08 | 81 | 1003.7 |
| 20260906160046 | 17 | 219 | 4.8 | 16.1 | 0.00 | 0.25 | 0.08 | 80 | 1003.7 |
| 20260906154534 | 17 | 10 | 4.8 | 20.9 | 0.00 | 0.25 | 0.08 | 80 | 1003.7 |
| 20260906153037 | 18 | 221 | 1.6 | 17.7 | 0.00 | 0.25 | 0.08 | 79 | 1003.6 |
| 20260906151530 | 18 | 32 | 3.2 | 11.3 | 0.00 | 0.25 | 0.08 | 79 | 1003.7 |
| 20260906150044 | 18 | 28 | 1.6 | 17.7 | 0.00 | 0.25 | 0.08 | 80 | 1003.7 |
| 20260906144533 | 17 | 80 | 3.2 | 19.3 | 0.00 | 0.25 | 0.08 | 82 | 1003.8 |
| 20260906143025 | 17 | 259 | 3.2 | 17.7 | 0.00 | 0.25 | 0.08 | 83 | 1003.9 |
| 20260906141531 | 16 | 9 | 1.6 | 19.3 | 0.00 | 0.25 | 0.08 | 85 | 1004.0 |
| 20260906140015 | 15 | 135 | 1.6 | 20.9 | 0.00 | 0.25 | 0.08 | 87 | 1003.9 |
| 20260906134512 | 15 | 27 | 3.2 | 14.5 | 0.00 | 0.25 | 0.08 | 87 | 1004.1 |
| 20260906133012 | 15 | 342 | 3.2 | 12.9 | 0.00 | 0.25 | 0.08 | 86 | 1004.0 |
| 20260906131522 | 15 | 103 | 3.2 | 14.5 | 0.00 | 0.25 | 0.08 | 87 | 1003.8 |
| 20260906130007 | 15 | 228 | 4.8 | 16.1 | 0.00 | 0.25 | 0.08 | 87 | 1003.8 |
| 20260906124505 | 15 | 71 | 1.6 | 16.1 | 0.00 | 0.28 | 0.08 | 88 | 1003.7 |
| 20260906123002 | 14 | 108 | 3.2 | 8.0 | 0.00 | 0.28 | 0.08 | 89 | 1003.8 |
| 20260906121600 | 14 | 285 | 1.6 | 16.1 | 0.00 | 0.28 | 0.08 | 89 | 1003.8 |
| 20260906120105 | 13 | 253 | 1.6 | 8.0 | 0.00 | 0.28 | 0.08 | 90 | 1003.8 |
| 20260906114557 | 13 | 54 | 3.2 | 12.9 | 0.00 | 0.33 | 0.08 | 91 | 1003.8 |
| 20260906113104 | 13 | 9 | 3.2 | 16.1 | 0.00 | 0.33 | 0.08 | 91 | 1003.7 |
| 20260906111556 | 13 | 263 | 1.6 | 14.5 | 0.00 | 0.33 | 0.08 | 92 | 1003.7 |
| 20260906110054 | 13 | 20 | 1.6 | 16.1 | 0.00 | 0.33 | 0.08 | 92 | 1003.6 |
| 20260906104613 | 13 | 338 | 1.6 | 17.7 | 0.00 | 0.33 | 0.08 | 92 | 1003.6 |
| 20260906103052 | 13 | 122 | 3.2 | 12.9 | 0.00 | 0.33 | 0.08 | 92 | 1003.4 |
| 20260906101551 | 13 | 236 | 0.0 | 9.7 | 0.00 | 0.33 | 0.08 | 92 | 1003.3 |
| 20260906100049 | 12 | 13 | 3.2 | 19.3 | 0.00 | 0.33 | 0.08 | 92 | 1003.2 |
| 20260906094612 | 12 | 113 | 1.6 | 12.9 | 0.00 | 0.33 | 0.08 | 93 | 1003.0 |
| 20260906093047 | 12 | 61 | 1.6 | 19.3 | 0.00 | 0.33 | 0.08 | 93 | 1002.9 |
| 20260906091547 | 12 | 257 | 1.6 | 14.5 | 0.00 | 0.33 | 0.08 | 93 | 1002.7 |
| 20260906090045 | 12 | 77 | 3.2 | 16.1 | 0.00 | 0.33 | 0.08 | 93 | 1002.7 |
| 20260906084543 | 12 | 60 | 3.2 | 14.5 | 0.03 | 0.36 | 0.08 | 93 | 1002.8 |
| 20260906083042 | 12 | 115 | 3.2 | 12.9 | 0.05 | 0.36 | 0.08 | 93 | 1002.7 |
| 20260906081548 | 12 | 49 | 3.2 | 12.9 | 0.05 | 0.36 | 0.08 | 93 | 1002.6 |
| 20260906080046 | 12 | 342 | 3.2 | 17.7 | 0.05 | 0.36 | 0.08 | 93 | 1002.6 |
| 20260906074538 | 12 | 251 | 3.2 | 17.7 | 0.05 | 0.36 | 0.05 | 93 | 1002.6 |
| 20260906073036 | 13 | 165 | 3.2 | 17.7 | 0.03 | 0.33 | 0.03 | 93 | 1002.7 |
| 20260906071535 | 13 | 127 | 3.2 | 14.5 | 0.03 | 0.33 | 0.03 | 93 | 1002.7 |
| 20260906070033 | 13 | 72 | 3.2 | 17.7 | 0.03 | 0.33 | 0.03 | 92 | 1002.5 |
| 20260906064531 | 13 | 290 | 3.2 | 19.3 | 0.00 | 0.30 | 0.00 | 92 | 1002.5 |
| 20260906063033 | 13 | 257 | 3.2 | 16.1 | 0.00 | 0.30 | 0.00 | 92 | 1002.5 |
| 20260906061536 | 13 | 73 | 4.8 | 20.9 | 0.00 | 0.30 | 0.00 | 91 | 1002.5 |
| 20260906060027 | 13 | 68 | 4.8 | 17.7 | 0.00 | 0.30 | 0.00 | 91 | 1002.5 |
| 20260906054523 | 13 | 172 | 4.8 | 20.9 | 0.00 | 0.30 | 0.00 | 91 | 1002.3 |
| 20260906053023 | 13 | 209 | 3.2 | 17.7 | 0.00 | 0.30 | 0.00 | 91 | 1002.4 |
| 20260906051521 | 13 | 323 | 4.8 | 24.1 | 0.00 | 0.30 | 0.00 | 91 | 1002.3 |
| 20260906050021 | 13 | 180 | 3.2 | 19.3 | 0.00 | 0.30 | 0.00 | 91 | 1002.3 |
| 20260906044519 | 13 | 32 | 4.8 | 24.1 | 0.00 | 0.30 | 0.00 | 91 | 1002.5 |
| 20260906043015 | 13 | 142 | 4.8 | 19.3 | 0.00 | 0.30 | 0.00 | 91 | 1002.4 |
| 20260906041514 | 14 | 269 | 4.8 | 17.7 | 0.00 | 0.30 | 0.00 | 91 | 1002.5 |
| 20260906040013 | 14 | 144 | 6.4 | 16.1 | 0.00 | 0.30 | 0.00 | 91 | 1002.6 |
| 20260906034511 | 13 | 45 | 4.8 | 16.1 | 0.00 | 0.30 | 0.00 | 91 | 1002.5 |
| 20260906033009 | 13 | 62 | 3.2 | 22.5 | 0.00 | 0.30 | 0.00 | 91 | 1002.7 |
| 20260906031509 | 13 | 80 | 3.2 | 12.9 | 0.00 | 0.30 | 0.00 | 91 | 1002.9 |
| 20260906030005 | 13 | 325 | 4.8 | 22.5 | 0.00 | 0.30 | 0.00 | 91 | 1002.7 |
| 20260906024504 | 13 | 289 | 4.8 | 25.7 | 0.00 | 0.30 | 0.30 | 91 | 1002.7 |
| 20260906023004 | 13 | 274 | 4.8 | 20.9 | 0.00 | 0.30 | 0.30 | 91 | 1002.6 |
| 20260906021502 | 13 | 191 | 6.4 | 16.1 | 0.00 | 0.30 | 0.30 | 91 | 1002.7 |
| 20260906020002 | 13 | 22 | 3.2 | 17.7 | 0.00 | 0.30 | 0.30 | 91 | 1002.9 |
| 20260906014601 | 13 | 146 | 4.8 | 17.7 | 0.00 | 0.30 | 0.30 | 92 | 1003.1 |
| 20260906013059 | 13 | 41 | 6.4 | 20.9 | 0.00 | 0.30 | 0.30 | 92 | 1003.0 |
| 20260906011558 | 13 | 324 | 3.2 | 17.7 | 0.00 | 0.30 | 0.30 | 92 | 1002.9 |
| 20260906010106 | 13 | 222 | 4.8 | 20.9 | 0.00 | 0.30 | 0.30 | 92 | 1003.1 |
| 20260906004558 | 13 | 91 | 4.8 | 17.7 | 0.00 | 0.30 | 0.30 | 92 | 1003.2 |
| 20260906003059 | 13 | 336 | 3.2 | 14.5 | 0.00 | 0.30 | 0.30 | 93 | 1003.1 |
| 20260906001606 | 13 | 85 | 6.4 | 20.9 | 0.00 | 0.30 | 0.30 | 93 | 1003.1 |
| 20260906000054 | 13 | 260 | 4.8 | 17.7 | 0.00 | 0.30 | 0.30 | 93 | 1003.1 |
| 20260905234551 | 13 | 47 | 4.8 | 16.1 | 0.03 | 0.30 | 0.30 | 93 | 1002.9 |
| 20260905233054 | 13 | 209 | 3.2 | 25.7 | 0.03 | 0.30 | 0.30 | 93 | 1002.7 |
| 20260905231548 | 13 | 114 | 4.8 | 20.9 | 0.05 | 0.30 | 0.30 | 93 | 1002.6 |
| 20260905230052 | 13 | 4 | 3.2 | 22.5 | 0.10 | 0.30 | 0.30 | 93 | 1002.5 |
| 20260905224554 | 13 | 74 | 3.2 | 14.5 | 0.08 | 0.28 | 0.28 | 93 | 1002.2 |
| 20260905223046 | 13 | 105 | 3.2 | 19.3 | 0.08 | 0.28 | 0.28 | 93 | 1002.1 |
| 20260905221547 | 13 | 79 | 3.2 | 14.5 | 0.05 | 0.23 | 0.23 | 93 | 1002.0 |
| 20260905220039 | 14 | 134 | 3.2 | 19.3 | 0.05 | 0.20 | 0.20 | 93 | 1002.0 |
| 20260905214537 | 14 | 92 | 4.8 | 17.7 | 0.05 | 0.20 | 0.20 | 92 | 1001.9 |
| 20260905213036 | 14 | 249 | 4.8 | 20.9 | 0.05 | 0.20 | 0.20 | 92 | 1001.8 |
| 20260905211543 | 14 | 173 | 4.8 | 17.7 | 0.03 | 0.18 | 0.18 | 92 | 1001.7 |
| 20260905210038 | 14 | 125 | 6.4 | 24.1 | 0.00 | 0.15 | 0.15 | 91 | 1001.6 |
| 20260905204530 | 15 | 143 | 6.4 | 24.1 | 0.00 | 0.15 | 0.15 | 91 | 1001.4 |
| 20260905203032 | 15 | 357 | 6.4 | 24.1 | 0.00 | 0.15 | 0.15 | 91 | 1001.2 |
| 20260905201527 | 15 | 70 | 4.8 | 19.3 | 0.00 | 0.15 | 0.15 | 91 | 1001.1 |
| 20260905200035 | 15 | 59 | 6.4 | 17.7 | 0.03 | 0.15 | 0.15 | 91 | 1001.1 |
| 20260905194522 | 14 | 195 | 3.2 | 19.3 | 0.05 | 0.15 | 0.15 | 92 | 1000.9 |
| 20260905193019 | 14 | 36 | 6.4 | 20.9 | 0.05 | 0.15 | 0.15 | 92 | 1000.7 |
| 20260905191516 | 14 | 74 | 6.4 | 32.2 | 0.05 | 0.15 | 0.15 | 92 | 1000.6 |
| 20260905190014 | 15 | 27 | 4.8 | 25.7 | 0.03 | 0.15 | 0.15 | 91 | 1000.6 |
| 20260905184512 | 15 | 108 | 4.8 | 19.3 | 0.00 | 0.13 | 0.13 | 91 | 1000.5 |
| 20260905183010 | 15 | 53 | 8.0 | 22.5 | 0.00 | 0.13 | 0.13 | 91 | 1000.2 |
| 20260905181508 | 15 | 210 | 4.8 | 24.1 | 0.00 | 0.13 | 0.13 | 90 | 1000.1 |
| 20260905180008 | 15 | 284 | 4.8 | 33.8 | 0.00 | 0.13 | 0.13 | 90 | 1000.0 |
| 20260905174506 | 15 | 241 | 4.8 | 25.7 | 0.00 | 0.13 | 0.13 | 89 | 999.9 |
| 20260905173007 | 15 | 77 | 6.4 | 29.0 | 0.00 | 0.13 | 0.13 | 90 | 999.9 |